QPF
0.01 0.01 0.01 0.01 0.01 0.02 0.02 0.02 0.03 0.03 0.04 0.06 0.08 0.07 0.05 0.05 0.05 0.04 0.03 0.03 0.03 0.03 0.03 0.04 0.04 0.03 0.02 0.01 0.01 0.01 0.02 0.02 0.02 0.03 0.03 0.03 0.03 0.03 0.02 0.02 0.02 0.01 0.01
0.01 0.01 0.01 0.01 0.01 0.01 0.01 0.01 0.02 0.03 0.03 0.03 0.05 0.06 0.04 0.04 0.04 0.04 0.04 0.03 0.02 0.02 0.02 0.02 0.03 0.03 0.04 0.04 0.03 0.03 0.02 0.02 0.02 0.02 0.03 0.03 0.03 0.03 0.02 0.02 0.02 0.02 0.02
0.01 0.01 0.01 0.01 0.01 0.01 0.01 0.01 0.01 0.02 0.03 0.03 0.04 0.05 0.04 0.04 0.04 0.05 0.06 0.04 0.02 0.02 0.01 0.02 0.02 0.03 0.03 0.03 0.04 0.05 0.05 0.04 0.03 0.02 0.04 0.04 0.04 0.03 0.02 0.02 0.02 0.02 0.02
0.01 0.01 0.01 0.01 0.02 0.02 0.02 0.01 0.01 0.02 0.03 0.03 0.04 0.04 0.05 0.04 0.04 0.05 0.05 0.05 0.03 0.02 0.02 0.02 0.03 0.03 0.04 0.04 0.05 0.05 0.07 0.06 0.04 0.03 0.03 0.03 0.04 0.04 0.03 0.02 0.02 0.02 0.02
0.01 0.01 0.01 0.01 0.01 0.02 0.02 0.02 0.02 0.02 0.02 0.03 0.04 0.04 0.04 0.05 0.04 0.04 0.04 0.04 0.03 0.02 0.02 0.02 0.03 0.03 0.04 0.04 0.04 0.05 0.05 0.06 0.05 0.04 0.04 0.04 0.04 0.04 0.05 0.04 0.03 0.03 0.02
0.01 0.02 0.02 0.01 0.01 0.01 0.02 0.02 0.02 0.02 0.03 0.03 0.03 0.03 0.04 0.05 0.05 0.04 0.04 0.04 0.03 0.02 0.01 0.01 0.02 0.02 0.03 0.04 0.04 0.03 0.02 0.03 0.03 0.04 0.04 0.04 0.04 0.04 0.04 0.04 0.04 0.04 0.03
0.02 0.02 0.03 0.03 0.02 0.02 0.02 0.02 0.02 0.03 0.03 0.03 0.04 0.04 0.04 0.04 0.06 0.06 0.05 0.05 0.04 0.03 0.02 0.02 0.02 0.02 0.02 0.03 0.04 0.04 0.03 0.02 0.02 0.02 0.03 0.03 0.03 0.02 0.02 0.03 0.04 0.04 0.04
0.02 0.02 0.02 0.02 0.02 0.03 0.02 0.02 0.02 0.02 0.03 0.03 0.04 0.03 0.03 0.03 0.06 0.07 0.07 0.06 0.05 0.04 0.02 0.01 0.02 0.02 0.02 0.02 0.03 0.03 0.02 0.02 0.02 0.02 0.02 0.03 0.03 0.03 0.04 0.03 0.04 0.04 0.04
0.01 0.02 0.02 0.02 0.01 0.02 0.02 0.02 0.02 0.02 0.02 0.02 0.02 0.02 0.02 0.03 0.04 0.08 0.08 0.07 0.07 0.06 0.04 0.02 0.01 0.02 0.02 0.02 0.02 0.02 0.02 0.02 0.02 0.02 0.02 0.02 0.02 0.03 0.04 0.04 0.05 0.04 0.04
0.00 0.01 0.02 0.02 0.01 0.01 0.02 0.02 0.02 0.02 0.02 0.02 0.02 0.02 0.02 0.02 0.04 0.06 0.09 0.09 0.09 0.08 0.08 0.06 0.04 0.02 0.02 0.02 0.02 0.03 0.03 0.03 0.03 0.02 0.02 0.02 0.02 0.03 0.03 0.04 0.05 0.06 0.06
0.00 0.01 0.01 0.01 0.01 0.01 0.01 0.02 0.02 0.01 0.01 0.02 0.02 0.02 0.02 0.02 0.04 0.04 0.06 0.09 0.10 0.09 0.08 0.08 0.08 0.05 0.03 0.02 0.02 0.03 0.03 0.03 0.03 0.03 0.03 0.03 0.03 0.03 0.03 0.04 0.05 0.05 0.05
0.00 0.00 0.00 0.01 0.01 0.01 0.01 0.01 0.01 0.01 0.01 0.01 0.01 0.01 0.01 0.02 0.04 0.05 0.05 0.06 0.08 0.09 0.09 0.08 0.07 0.07 0.05 0.03 0.03 0.04 0.04 0.04 0.04 0.04 0.04 0.03 0.03 0.03 0.03 0.03 0.04 0.04 0.04
0.00 0.01 0.01 0.01 0.01 0.00 0.01 0.01 0.01 0.01 0.01 0.01 0.01 0.01 0.01 0.01 0.03 0.05 0.05 0.05 0.06 0.06 0.06 0.06 0.06 0.06 0.05 0.04 0.03 0.03 0.04 0.04 0.04 0.04 0.03 0.03 0.03 0.04 0.03 0.03 0.04 0.04 0.04
0.00 0.00 0.01 0.01 0.01 0.01 0.00 0.00 0.00 0.00 0.00 0.00 0.00 0.01 0.01 0.01 0.02 0.03 0.03 0.04 0.05 0.05 0.04 0.04 0.04 0.04 0.03 0.03 0.02 0.02 0.03 0.04 0.04 0.05 0.05 0.04 0.03 0.03 0.03 0.04 0.05 0.04 0.04
0.00 0.00 0.00 0.00 0.00 0.00 0.00 0.00 0.00 0.00 0.00 0.00 0.00 0.01 0.01 0.01 0.01 0.02 0.02 0.03 0.04 0.05 0.04 0.03 0.03 0.03 0.03 0.03 0.02 0.02 0.02 0.03 0.03 0.03 0.04 0.04 0.04 0.04 0.04 0.04 0.05 0.04 0.04
0.00 0.00 0.00 0.00 0.00 0.00 0.00 0.00 0.00 0.00 0.00 0.00 0.00 0.01 0.01 0.01 0.01 0.01 0.02 0.02 0.02 0.03 0.04 0.03 0.03 0.02 0.02 0.03 0.02 0.02 0.02 0.02 0.02 0.02 0.02 0.02 0.03 0.03 0.04 0.04 0.05 0.05 0.05
0.00 0.00 0.00 0.00 0.00 0.00 0.00 0.00 0.00 0.00 0.01 0.00 0.01 0.01 0.02 0.02 0.01 0.01 0.01 0.01 0.02 0.03 0.04 0.04 0.03 0.02 0.02 0.02 0.02 0.02 0.02 0.01 0.01 0.01 0.01 0.01 0.02 0.02 0.02 0.03 0.04 0.04 0.05
0.00 0.00 0.00 0.00 0.00 0.00 0.00 0.00 0.00 0.00 0.01 0.01 0.01 0.02 0.03 0.03 0.02 0.01 0.01 0.01 0.01 0.02 0.03 0.04 0.03 0.02 0.02 0.01 0.01 0.01 0.01 0.01 0.01 0.01 0.01 0.01 0.01 0.01 0.02 0.02 0.02 0.02 0.03
0.00 0.01 0.01 0.00 0.00 0.00 0.00 0.00 0.00 0.00 0.00 0.00 0.01 0.01 0.03 0.03 0.03 0.01 0.01 0.02 0.02 0.02 0.02 0.02 0.02 0.02 0.01 0.01 0.01 0.01 0.01 0.01 0.01 0.01 0.01 0.01 0.01 0.02 0.02 0.02 0.02 0.02 0.02
0.00 0.01 0.01 0.00 0.00 0.00 0.00 0.00 0.00 0.00 0.00 0.00 0.00 0.01 0.01 0.03 0.04 0.03 0.03 0.02 0.02 0.02 0.01 0.01 0.01 0.01 0.01 0.01 0.01 0.01 0.01 0.01 0.01 0.01 0.01 0.01 0.02 0.02 0.02 0.02 0.02 0.02 0.02
0.00 0.01 0.01 0.01 0.00 0.00 0.00 0.00 0.00 0.00 0.00 0.00 0.00 0.00 0.00 0.01 0.02 0.02 0.02 0.01 0.01 0.01 0.01 0.00 0.00 0.00 0.01 0.01 0.01 0.01 0.01 0.01 0.01 0.01 0.01 0.01 0.02 0.02 0.02 0.02 0.02 0.02 0.02
0.01 0.01 0.01 0.01 0.00 0.00 0.00 0.00 0.00 0.00 0.00 0.00 0.01 0.01 0.00 0.00 0.00 0.00 0.00 0.00 0.00 0.00 0.00 0.00 0.00 0.00 0.00 0.00 0.01 0.01 0.01 0.01 0.01 0.01 0.01 0.01 0.01 0.01 0.01 0.01 0.02 0.02 0.02
0.01 0.01 0.01 0.01 0.00 0.00 0.00 0.00 0.00 0.00 0.00 0.00 0.01 0.01 0.01 0.01 0.00 0.00 0.00 0.00 0.00 0.00 0.00 0.00 0.00 0.00 0.00 0.00 0.01 0.01 0.01 0.01 0.01 0.01 0.01 0.01 0.01 0.01 0.01 0.01 0.01 0.01 0.01
0.01 0.02 0.02 0.01 0.01 0.00 0.00 0.00 0.00 0.00 0.00 0.01 0.01 0.01 0.01 0.01 0.01 0.00 0.00 0.00 0.00 0.00 0.00 0.00 0.00 0.00 0.00 0.00 0.00 0.01 0.01 0.01 0.01 0.01 0.01 0.01 0.01 0.01 0.01 0.01 0.01 0.01 0.01
0.02 0.01 0.01 0.01 0.01 0.01 0.01 0.01 0.01 0.01 0.01 0.01 0.01 0.01 0.00 0.01 0.00 0.00 0.00 0.00 0.00 0.00 0.01 0.01 0.01 0.01 0.01 0.01 0.01 0.01 0.01 0.01 0.01 0.01 0.01 0.01 0.01 0.01 0.01 0.01 0.01 0.01 0.01
0.01 0.01 0.01 0.01 0.01 0.02 0.01 0.01 0.01 0.01 0.01 0.01 0.01 0.01 0.00 0.01 0.01 0.00 0.00 0.00 0.00 0.00 0.00 0.01 0.01 0.01 0.01 0.01 0.01 0.01 0.01 0.01 0.01 0.02 0.02 0.01 0.01 0.01 0.01 0.01 0.01 0.01 0.01
MSLP
1022.92 1023.23 1023.45 1023.58 1023.62 1023.58 1023.48 1023.34 1023.14 1022.87 1022.53 1022.09 1021.54 1020.88 1020.12 1019.30 1018.45 1017.62 1016.87 1016.23 1015.72 1015.35 1015.10 1014.97 1014.91 1014.89 1014.88 1014.84 1014.76 1014.64 1014.46 1014.25 1014.01 1013.77 1013.53 1013.33 1013.17 1013.07 1013.05 1013.10 1013.24 1013.46 1013.76
1023.13 1023.45 1023.68 1023.80 1023.83 1023.79 1023.68 1023.53 1023.34 1023.10 1022.79 1022.39 1021.87 1021.23 1020.47 1019.63 1018.73 1017.84 1017.01 1016.29 1015.71 1015.30 1015.03 1014.89 1014.84 1014.85 1014.87 1014.86 1014.81 1014.71 1014.55 1014.35 1014.11 1013.86 1013.61 1013.38 1013.17 1013.02 1012.91 1012.88 1012.93 1013.07 1013.30
1023.31 1023.64 1023.87 1023.99 1024.00 1023.93 1023.80 1023.64 1023.46 1023.24 1022.97 1022.62 1022.15 1021.56 1020.83 1020.00 1019.09 1018.17 1017.30 1016.53 1015.90 1015.44 1015.13 1014.98 1014.92 1014.92 1014.93 1014.92 1014.87 1014.77 1014.61 1014.41 1014.18 1013.94 1013.70 1013.46 1013.24 1013.05 1012.89 1012.78 1012.75 1012.80 1012.94
1023.36 1023.70 1023.94 1024.05 1024.04 1023.95 1023.80 1023.62 1023.43 1023.24 1023.01 1022.72 1022.33 1021.82 1021.16 1020.38 1019.50 1018.60 1017.72 1016.93 1016.28 1015.78 1015.44 1015.25 1015.15 1015.11 1015.08 1015.04 1014.96 1014.83 1014.66 1014.46 1014.25 1014.03 1013.81 1013.60 1013.38 1013.18 1012.99 1012.83 1012.71 1012.67 1012.71
1023.24 1023.60 1023.84 1023.95 1023.93 1023.81 1023.63 1023.44 1023.25 1023.08 1022.90 1022.69 1022.38 1021.97 1021.41 1020.72 1019.93 1019.08 1018.24 1017.47 1016.81 1016.30 1015.93 1015.68 1015.53 1015.43 1015.33 1015.23 1015.09 1014.92 1014.73 1014.53 1014.33 1014.14 1013.97 1013.79 1013.61 1013.42 1013.21 1013.01 1012.82 1012.68 1012.62
1022.92 1023.30 1023.57 1023.68 1023.65 1023.51 1023.31 1023.11 1022.92 1022.77 1022.65 1022.50 1022.30 1021.99 1021.56 1020.99 1020.31 1019.56 1018.79 1018.07 1017.43 1016.92 1016.52 1016.23 1016.01 1015.83 1015.66 1015.47 1015.27 1015.05 1014.83 1014.62 1014.44 1014.30 1014.17 1014.05 1013.91 1013.74 1013.53 1013.29 1013.04 1012.82 1012.65
1022.46 1022.87 1023.16 1023.28 1023.25 1023.11 1022.90 1022.67 1022.49 1022.36 1022.28 1022.20 1022.09 1021.90 1021.60 1021.16 1020.60 1019.96 1019.29 1018.64 1018.05 1017.54 1017.13 1016.80 1016.53 1016.27 1016.03 1015.77 1015.49 1015.22 1014.98 1014.77 1014.61 1014.50 1014.42 1014.35 1014.26 1014.12 1013.92 1013.65 1013.35 1013.03 1012.76
1021.94 1022.38 1022.69 1022.83 1022.81 1022.66 1022.45 1022.22 1022.04 1021.92 1021.87 1021.85 1021.81 1021.72 1021.52 1021.20 1020.77 1020.25 1019.68 1019.10 1018.57 1018.09 1017.68 1017.32 1017.01 1016.70 1016.39 1016.07 1015.75 1015.44 1015.17 1014.97 1014.83 1014.75 1014.72 1014.70 1014.64 1014.53 1014.33 1014.04 1013.68 1013.30 1012.93
1021.49 1021.93 1022.26 1022.42 1022.41 1022.27 1022.05 1021.82 1021.63 1021.52 1021.48 1021.48 1021.50 1021.47 1021.35 1021.13 1020.79 1020.37 1019.89 1019.39 1018.91 1018.47 1018.08 1017.72 1017.39 1017.05 1016.71 1016.36 1016.01 1015.69 1015.42 1015.22 1015.10 1015.05 1015.05 1015.06 1015.03 1014.93 1014.73 1014.42 1014.02 1013.58 1013.13
1021.19 1021.64 1021.97 1022.14 1022.14 1022.00 1021.78 1021.54 1021.34 1021.22 1021.17 1021.17 1021.20 1021.19 1021.12 1020.95 1020.68 1020.32 1019.91 1019.48 1019.06 1018.66 1018.29 1017.95 1017.63 1017.30 1016.96 1016.61 1016.26 1015.95 1015.69 1015.50 1015.40 1015.37 1015.39 1015.42 1015.40 1015.31 1015.10 1014.78 1014.36 1013.87 1013.38
1021.11 1021.53 1021.86 1022.02 1022.02 1021.88 1021.66 1021.41 1021.20 1021.05 1020.97 1020.95 1020.94 1020.92 1020.84 1020.69 1020.44 1020.13 1019.76 1019.37 1018.99 1018.64 1018.31 1018.01 1017.71 1017.41 1017.10 1016.79 1016.48 1016.19 1015.96 1015.80 1015.72 1015.70 1015.73 1015.76 1015.75 1015.65 1015.44 1015.12 1014.69 1014.19 1013.67
1021.23 1021.62 1021.91 1022.05 1022.04 1021.90 1021.68 1021.42 1021.18 1021.00 1020.88 1020.80 1020.75 1020.68 1020.57 1020.38 1020.13 1019.82 1019.48 1019.12 1018.77 1018.46 1018.17 1017.91 1017.66 1017.42 1017.16 1016.90 1016.64 1016.40 1016.21 1016.09 1016.02 1016.02 1016.05 1016.08 1016.06 1015.96 1015.76 1015.44 1015.02 1014.53 1014.03
1021.49 1021.82 1022.07 1022.18 1022.15 1022.00 1021.77 1021.51 1021.25 1021.03 1020.86 1020.73 1020.60 1020.47 1020.30 1020.07 1019.79 1019.46 1019.12 1018.77 1018.45 1018.17 1017.92 1017.71 1017.51 1017.32 1017.13 1016.93 1016.73 1016.55 1016.41 1016.32 1016.28 1016.29 1016.32 1016.34 1016.33 1016.24 1016.05 1015.75 1015.37 1014.92 1014.44
1021.79 1022.05 1022.24 1022.31 1022.26 1022.11 1021.87 1021.61 1021.34 1021.09 1020.87 1020.67 1020.48 1020.28 1020.04 1019.76 1019.44 1019.09 1018.74 1018.40 1018.10 1017.84 1017.62 1017.45 1017.30 1017.16 1017.02 1016.88 1016.75 1016.62 1016.53 1016.47 1016.46 1016.47 1016.51 1016.54 1016.53 1016.45 1016.29 1016.04 1015.71 1015.32 1014.90
1022.03 1022.22 1022.34 1022.37 1022.30 1022.14 1021.91 1021.64 1021.37 1021.10 1020.85 1020.60 1020.35 1020.08 1019.78 1019.46 1019.10 1018.73 1018.37 1018.04 1017.75 1017.50 1017.31 1017.17 1017.05 1016.95 1016.85 1016.76 1016.67 1016.59 1016.53 1016.51 1016.51 1016.55 1016.59 1016.63 1016.63 1016.59 1016.47 1016.27 1016.01 1015.69 1015.35
1022.13 1022.24 1022.30 1022.28 1022.19 1022.04 1021.82 1021.57 1021.30 1021.03 1020.75 1020.47 1020.17 1019.85 1019.51 1019.14 1018.76 1018.38 1018.02 1017.69 1017.41 1017.18 1017.01 1016.87 1016.77 1016.69 1016.61 1016.54 1016.48 1016.43 1016.40 1016.40 1016.42 1016.47 1016.53 1016.59 1016.62 1016.61 1016.54 1016.41 1016.23 1016.00 1015.73
1022.06 1022.09 1022.09 1022.04 1021.94 1021.79 1021.60 1021.37 1021.11 1020.84 1020.55 1020.24 1019.90 1019.55 1019.18 1018.79 1018.40 1018.03 1017.67 1017.36 1017.09 1016.87 1016.70 1016.56 1016.46 1016.37 1016.30 1016.24 1016.18 1016.14 1016.13 1016.14 1016.18 1016.24 1016.32 1016.39 1016.46 1016.49 1016.48 1016.42 1016.32 1016.16 1015.98
1021.83 1021.79 1021.73 1021.65 1021.55 1021.41 1021.24 1021.03 1020.79 1020.52 1020.22 1019.89 1019.53 1019.15 1018.76 1018.37 1017.98 1017.62 1017.28 1016.99 1016.74 1016.53 1016.36 1016.22 1016.10 1016.00 1015.91 1015.83 1015.77 1015.73 1015.71 1015.73 1015.78 1015.86 1015.95 1016.05 1016.15 1016.22 1016.27 1016.27 1016.24 1016.16 1016.05
1021.51 1021.39 1021.29 1021.18 1021.07 1020.94 1020.79 1020.60 1020.37 1020.09 1019.78 1019.42 1019.04 1018.64 1018.24 1017.85 1017.47 1017.13 1016.82 1016.55 1016.32 1016.13 1015.96 1015.81 1015.67 1015.55 1015.43 1015.33 1015.25 1015.20 1015.18 1015.20 1015.26 1015.35 1015.46 1015.59 1015.71 1015.82 1015.91 1015.97 1015.99 1015.97 1015.92
1021.15 1020.96 1020.81 1020.68 1020.56 1020.44 1020.29 1020.10 1019.87 1019.58 1019.24 1018.86 1018.45 1018.02 1017.61 1017.21 1016.85 1016.53 1016.26 1016.02 1015.82 1015.64 1015.47 1015.32 1015.17 1015.02 1014.88 1014.76 1014.66 1014.60 1014.58 1014.60 1014.66 1014.76 1014.89 1015.03 1015.18 1015.32 1015.44 1015.54 1015.60 1015.63 1015.62
1020.80 1020.55 1020.35 1020.19 1020.06 1019.93 1019.78 1019.58 1019.32 1019.00 1018.63 1018.21 1017.76 1017.31 1016.88 1016.48 1016.14 1015.84 1015.59 1015.39 1015.21 1015.05 1014.90 1014.75 1014.59 1014.43 1014.28 1014.14 1014.03 1013.96 1013.94 1013.96 1014.03 1014.14 1014.28 1014.44 1014.60 1014.76 1014.90 1015.03 1015.12 1015.17 1015.19
1020.48 1020.16 1019.92 1019.73 1019.58 1019.42 1019.25 1019.03 1018.74 1018.38 1017.96 1017.50 1017.01 1016.53 1016.08 1015.68 1015.34 1015.06 1014.84 1014.67 1014.52 1014.38 1014.25 1014.10 1013.95 1013.79 1013.63 1013.49 1013.37 1013.31 1013.28 1013.32 1013.40 1013.52 1013.67 1013.84 1014.01 1014.18 1014.34 1014.48 1014.58 1014.66 1014.69
1020.16 1019.79 1019.50 1019.27 1019.08 1018.90 1018.70 1018.44 1018.12 1017.72 1017.25 1016.75 1016.23 1015.72 1015.25 1014.85 1014.51 1014.25 1014.05 1013.90 1013.77 1013.66 1013.54 1013.41 1013.26 1013.10 1012.95 1012.82 1012.71 1012.65 1012.64 1012.68 1012.77 1012.90 1013.07 1013.24 1013.43 1013.61 1013.77 1013.92 1014.03 1014.11 1014.16
1019.80 1019.37 1019.03 1018.77 1018.55 1018.33 1018.09 1017.80 1017.44 1017.00 1016.50 1015.97 1015.42 1014.90 1014.42 1014.02 1013.69 1013.44 1013.25 1013.12 1013.01 1012.91 1012.80 1012.68 1012.54 1012.40 1012.26 1012.13 1012.04 1011.99 1012.00 1012.06 1012.16 1012.30 1012.47 1012.66 1012.85 1013.03 1013.20 1013.35 1013.47 1013.56 1013.62
1019.34 1018.87 1018.48 1018.17 1017.91 1017.66 1017.39 1017.07 1016.67 1016.22 1015.70 1015.16 1014.61 1014.09 1013.62 1013.22 1012.90 1012.66 1012.48 1012.35 1012.24 1012.15 1012.05 1011.93 1011.80 1011.67 1011.54 1011.43 1011.35 1011.33 1011.35 1011.42 1011.54 1011.69 1011.87 1012.06 1012.26 1012.44 1012.62 1012.77 1012.89 1012.99 1013.05
1018.75 1018.23 1017.80 1017.45 1017.15 1016.87 1016.56 1016.22 1015.82 1015.36 1014.85 1014.32 1013.79 1013.29 1012.84 1012.46 1012.15 1011.92 1011.74 1011.60 1011.49 1011.39 1011.28 1011.16 1011.04 1010.91 1010.79 1010.70 1010.64 1010.63 1010.66 1010.75 1010.88 1011.04 1011.23 1011.42 1011.62 1011.81 1011.98 1012.13 1012.27 1012.37 1012.44
Thickness
5596 5596 5595 5595 5594 5594 5594 5595 5595 5595 5596 5596 5595 5595 5594 5596 5596 5597 5598 5598 5599 5599 5599 5599 5600 5600 5601 5601 5602 5603 5603 5604 5605 5606 5607 5611 5614 5615 5616 5617 5617 5618 5618
5587 5586 5585 5584 5584 5584 5583 5584 5584 5584 5585 5585 5585 5585 5585 5585 5586 5586 5587 5588 5588 5589 5589 5589 5589 5590 5591 5591 5591 5592 5592 5593 5594 5593 5594 5596 5600 5604 5606 5607 5607 5608 5608
5579 5577 5576 5574 5573 5572 5572 5573 5573 5574 5574 5574 5574 5574 5575 5575 5574 5575 5576 5577 5577 5578 5578 5578 5579 5580 5581 5581 5581 5582 5582 5582 5583 5584 5582 5583 5586 5589 5594 5596 5597 5598 5598
5571 5569 5567 5564 5562 5561 5561 5561 5562 5562 5563 5564 5564 5563 5563 5563 5564 5564 5565 5566 5566 5567 5567 5568 5568 5569 5570 5571 5572 5572 5572 5572 5573 5573 5574 5574 5576 5575 5578 5583 5586 5587 5588
5562 5560 5557 5554 5553 5551 5550 5550 5550 5551 5552 5552 5553 5553 5552 5552 5552 5553 5554 5555 5555 5556 5556 5556 5557 5558 5559 5560 5561 5561 5562 5562 5563 5563 5563 5563 5564 5566 5565 5568 5572 5574 5576
5552 5549 5547 5544 5541 5539 5539 5538 5539 5540 5540 5541 5542 5542 5541 5541 5541 5541 5542 5543 5544 5545 5545 5545 5546 5547 5548 5548 5550 5551 5551 5552 5552 5553 5553 5553 5552 5554 5555 5556 5559 5561 5563
5539 5537 5535 5532 5530 5529 5528 5528 5528 5528 5529 5530 5530 5531 5531 5531 5530 5531 5531 5532 5533 5534 5534 5534 5535 5536 5537 5538 5539 5539 5540 5541 5542 5542 5542 5543 5543 5544 5544 5544 5546 5548 5551
5528 5526 5524 5522 5520 5519 5518 5517 5517 5516 5518 5519 5519 5519 5520 5520 5520 5520 5520 5521 5521 5522 5523 5524 5524 5525 5526 5527 5527 5528 5529 5530 5530 5531 5532 5532 5533 5533 5533 5533 5533 5536 5538
5518 5515 5514 5512 5510 5508 5507 5506 5506 5506 5506 5507 5507 5507 5508 5508 5509 5509 5509 5509 5510 5511 5511 5512 5512 5513 5514 5515 5516 5516 5517 5518 5519 5520 5520 5521 5521 5522 5522 5522 5522 5522 5525
5506 5504 5502 5501 5499 5497 5496 5495 5495 5495 5495 5496 5496 5497 5497 5497 5497 5498 5498 5498 5499 5499 5499 5500 5500 5501 5502 5503 5504 5505 5505 5506 5507 5508 5509 5509 5510 5510 5510 5510 5510 5510 5512
5494 5492 5490 5489 5488 5486 5485 5484 5484 5484 5484 5484 5485 5485 5485 5486 5486 5486 5487 5487 5487 5487 5488 5488 5488 5489 5489 5490 5491 5492 5493 5493 5494 5495 5496 5496 5497 5497 5498 5498 5498 5499 5499
5482 5480 5478 5477 5475 5474 5473 5473 5473 5472 5472 5473 5474 5474 5474 5475 5475 5474 5475 5475 5475 5475 5475 5475 5476 5476 5477 5478 5479 5479 5480 5481 5482 5482 5483 5483 5483 5484 5485 5485 5486 5487 5487
5471 5468 5466 5465 5464 5463 5462 5462 5462 5461 5462 5462 5462 5463 5463 5464 5464 5463 5463 5463 5463 5463 5463 5463 5463 5464 5465 5465 5466 5467 5468 5469 5469 5469 5469 5470 5470 5471 5471 5471 5472 5473 5475
5460 5458 5455 5454 5453 5452 5452 5451 5451 5451 5451 5451 5451 5451 5452 5452 5452 5452 5451 5451 5451 5451 5451 5451 5451 5451 5452 5452 5453 5454 5455 5455 5455 5456 5456 5457 5457 5457 5457 5458 5459 5459 5460
5450 5448 5446 5444 5443 5442 5441 5440 5440 5439 5440 5440 5440 5439 5440 5440 5440 5439 5439 5439 5439 5439 5439 5438 5438 5438 5439 5440 5440 5441 5442 5443 5442 5442 5443 5444 5444 5444 5444 5445 5445 5446 5446
5441 5438 5437 5435 5433 5432 5430 5429 5428 5428 5428 5428 5428 5428 5428 5428 5427 5426 5425 5425 5426 5426 5426 5426 5426 5426 5426 5427 5428 5429 5429 5430 5430 5429 5430 5430 5432 5432 5432 5433 5433 5434 5434
5431 5428 5426 5424 5423 5421 5421 5419 5418 5418 5417 5417 5417 5416 5416 5416 5415 5414 5413 5412 5412 5413 5413 5413 5413 5413 5413 5414 5415 5416 5416 5416 5416 5416 5417 5418 5419 5419 5419 5420 5421 5421 5421
5421 5418 5416 5414 5413 5412 5411 5410 5408 5407 5407 5406 5406 5405 5405 5404 5404 5403 5402 5400 5400 5401 5401 5401 5401 5401 5401 5402 5402 5403 5403 5403 5403 5403 5404 5405 5405 5406 5407 5408 5408 5408 5409
5411 5409 5406 5404 5403 5402 5401 5400 5398 5397 5397 5396 5396 5395 5394 5394 5393 5391 5390 5390 5389 5389 5389 5389 5389 5389 5389 5390 5390 5391 5390 5390 5391 5391 5392 5392 5393 5395 5396 5396 5396 5397 5398
5401 5398 5396 5395 5393 5392 5391 5390 5389 5388 5387 5387 5386 5385 5384 5383 5382 5381 5380 5379 5379 5378 5378 5378 5378 5377 5378 5379 5379 5379 5379 5379 5380 5380 5381 5382 5382 5383 5383 5383 5383 5384 5385
5390 5388 5386 5383 5382 5382 5381 5379 5379 5378 5378 5377 5376 5375 5373 5373 5372 5371 5370 5369 5369 5368 5367 5367 5367 5367 5367 5368 5368 5369 5368 5368 5368 5368 5369 5370 5370 5371 5371 5371 5371 5372 5372
5378 5377 5375 5372 5372 5371 5370 5370 5369 5369 5368 5367 5366 5365 5364 5363 5363 5361 5360 5359 5359 5358 5357 5357 5357 5357 5357 5357 5358 5358 5358 5358 5358 5358 5358 5358 5359 5360 5360 5360 5360 5360 5360
5368 5366 5364 5363 5362 5361 5361 5360 5360 5359 5359 5358 5357 5356 5355 5355 5354 5352 5351 5350 5349 5348 5348 5348 5347 5348 5347 5347 5348 5348 5348 5348 5348 5348 5348 5349 5349 5349 5349 5349 5349 5349 5348
5358 5356 5354 5353 5352 5352 5352 5351 5351 5350 5350 5348 5347 5347 5346 5346 5345 5344 5344 5342 5341 5340 5339 5339 5338 5338 5338 5337 5337 5336 5337 5337 5338 5338 5338 5339 5339 5339 5339 5339 5338 5338 5338
5349 5347 5345 5344 5343 5343 5342 5342 5341 5341 5340 5339 5339 5338 5338 5337 5336 5336 5335 5334 5334 5332 5332 5331 5330 5329 5328 5328 5328 5328 5328 5328 5328 5328 5328 5328 5329 5328 5328 5328 5328 5328 5328
5340 5338 5337 5336 5335 5334 5334 5333 5333 5332 5331 5331 5330 5330 5329 5329 5328 5327 5327 5327 5327 5327 5327 5325 5324 5323 5323 5322 5322 5322 5321 5321 5321 5321 5320 5320 5320 5319 5319 5319 5319 5319 5319